QPF
0.00 0.00 0.00 0.00 0.00 0.00 0.00 0.00 0.00 0.00 0.00 0.00 0.00 0.00 0.00 0.00 0.00 0.00 0.00 0.00 0.00 0.00 0.00 0.00 0.00 0.00 0.00 0.00 0.00 0.00 0.00 0.00 0.00 0.00 0.00 0.00 0.00 0.00 0.00 0.00 0.00 0.00
0.00 0.00 0.00 0.00 0.00 0.00 0.00 0.00 0.00 0.00 0.00 0.00 0.00 0.00 0.00 0.00 0.00 0.00 0.00 0.00 0.00 0.00 0.00 0.00 0.00 0.00 0.00 0.00 0.00 0.00 0.00 0.00 0.00 0.00 0.00 0.00 0.00 0.00 0.00 0.00 0.00 0.00
0.00 0.00 0.00 0.00 0.00 0.00 0.00 0.00 0.00 0.00 0.00 0.00 0.00 0.00 0.00 0.00 0.00 0.00 0.00 0.00 0.00 0.00 0.00 0.00 0.00 0.00 0.00 0.00 0.00 0.00 0.00 0.00 0.00 0.00 0.00 0.00 0.00 0.00 0.00 0.00 0.00 0.00
0.00 0.00 0.00 0.00 0.00 0.00 0.00 0.00 0.00 0.00 0.00 0.00 0.00 0.00 0.00 0.00 0.00 0.00 0.00 0.00 0.00 0.00 0.00 0.00 0.00 0.00 0.00 0.00 0.00 0.00 0.00 0.00 0.00 0.00 0.00 0.00 0.00 0.00 0.00 0.00 0.00 0.00
0.00 0.00 0.00 0.00 0.00 0.00 0.00 0.00 0.00 0.00 0.00 0.00 0.00 0.00 0.00 0.00 0.00 0.00 0.00 0.00 0.00 0.00 0.00 0.00 0.00 0.00 0.00 0.00 0.00 0.00 0.00 0.00 0.00 0.00 0.00 0.00 0.00 0.00 0.00 0.00 0.00 0.00
0.00 0.00 0.00 0.00 0.00 0.00 0.00 0.00 0.00 0.00 0.00 0.00 0.00 0.00 0.00 0.00 0.00 0.00 0.00 0.00 0.00 0.00 0.00 0.00 0.00 0.00 0.00 0.00 0.00 0.00 0.00 0.00 0.00 0.00 0.00 0.00 0.00 0.00 0.00 0.00 0.00 0.00
0.00 0.00 0.00 0.00 0.00 0.00 0.00 0.00 0.00 0.00 0.00 0.00 0.00 0.00 0.00 0.00 0.00 0.00 0.00 0.00 0.00 0.00 0.00 0.00 0.00 0.00 0.00 0.00 0.00 0.00 0.00 0.00 0.00 0.00 0.00 0.00 0.00 0.00 0.00 0.01 0.00 0.00
0.00 0.00 0.00 0.00 0.00 0.00 0.00 0.00 0.00 0.00 0.00 0.00 0.00 0.00 0.00 0.00 0.00 0.00 0.00 0.00 0.00 0.00 0.00 0.00 0.00 0.00 0.00 0.00 0.00 0.00 0.00 0.00 0.00 0.00 0.00 0.00 0.00 0.00 0.00 0.00 0.00 0.00
0.00 0.00 0.00 0.00 0.00 0.00 0.00 0.00 0.00 0.00 0.00 0.00 0.00 0.00 0.00 0.00 0.00 0.00 0.00 0.00 0.00 0.00 0.00 0.00 0.00 0.00 0.00 0.00 0.00 0.00 0.00 0.00 0.00 0.00 0.00 0.00 0.00 0.00 0.00 0.00 0.00 0.00
0.00 0.00 0.00 0.00 0.00 0.00 0.00 0.00 0.00 0.00 0.00 0.00 0.00 0.00 0.00 0.00 0.00 0.00 0.00 0.00 0.00 0.00 0.00 0.00 0.00 0.00 0.00 0.00 0.00 0.00 0.00 0.00 0.00 0.00 0.00 0.00 0.00 0.00 0.00 0.00 0.00 0.00
0.00 0.00 0.00 0.00 0.00 0.00 0.00 0.00 0.00 0.00 0.00 0.00 0.00 0.00 0.00 0.00 0.00 0.00 0.00 0.00 0.00 0.00 0.00 0.00 0.00 0.00 0.00 0.00 0.00 0.00 0.00 0.00 0.00 0.00 0.00 0.00 0.00 0.00 0.00 0.00 0.00 0.00
0.00 0.00 0.00 0.00 0.00 0.00 0.00 0.00 0.00 0.00 0.00 0.00 0.00 0.00 0.00 0.00 0.00 0.00 0.00 0.00 0.00 0.00 0.00 0.00 0.00 0.00 0.00 0.00 0.00 0.00 0.00 0.00 0.00 0.00 0.00 0.00 0.00 0.00 0.00 0.00 0.00 0.00
0.00 0.00 0.00 0.00 0.00 0.00 0.00 0.00 0.00 0.00 0.00 0.00 0.00 0.00 0.00 0.00 0.00 0.00 0.00 0.00 0.00 0.00 0.00 0.00 0.00 0.00 0.00 0.00 0.00 0.00 0.00 0.00 0.00 0.00 0.00 0.00 0.00 0.00 0.00 0.00 0.00 0.00
0.00 0.00 0.00 0.00 0.00 0.00 0.00 0.00 0.00 0.00 0.00 0.00 0.00 0.00 0.00 0.00 0.00 0.00 0.00 0.00 0.00 0.00 0.00 0.00 0.00 0.00 0.00 0.00 0.00 0.00 0.00 0.00 0.00 0.00 0.00 0.00 0.00 0.00 0.00 0.00 0.00 0.00
0.00 0.00 0.00 0.00 0.00 0.00 0.00 0.00 0.00 0.00 0.00 0.00 0.00 0.00 0.00 0.00 0.00 0.00 0.00 0.00 0.00 0.00 0.00 0.00 0.00 0.00 0.00 0.00 0.00 0.00 0.00 0.00 0.00 0.00 0.00 0.00 0.00 0.00 0.00 0.00 0.00 0.00
0.00 0.00 0.00 0.00 0.00 0.00 0.00 0.00 0.00 0.00 0.00 0.00 0.00 0.00 0.00 0.00 0.00 0.00 0.00 0.00 0.00 0.00 0.00 0.00 0.00 0.00 0.00 0.00 0.00 0.00 0.00 0.00 0.00 0.00 0.00 0.00 0.00 0.00 0.00 0.00 0.00 0.00
0.00 0.00 0.00 0.00 0.00 0.00 0.00 0.00 0.00 0.00 0.00 0.00 0.00 0.00 0.00 0.00 0.00 0.00 0.00 0.00 0.00 0.00 0.00 0.00 0.00 0.00 0.00 0.00 0.00 0.00 0.00 0.00 0.00 0.00 0.00 0.00 0.00 0.00 0.00 0.00 0.00 0.00
0.00 0.00 0.00 0.00 0.00 0.00 0.00 0.00 0.00 0.00 0.00 0.00 0.00 0.00 0.00 0.00 0.00 0.00 0.00 0.00 0.00 0.00 0.00 0.00 0.00 0.00 0.00 0.00 0.00 0.00 0.00 0.00 0.00 0.00 0.00 0.00 0.00 0.00 0.00 0.00 0.00 0.00
0.00 0.00 0.00 0.00 0.00 0.00 0.00 0.00 0.00 0.00 0.00 0.00 0.00 0.00 0.00 0.00 0.00 0.00 0.00 0.00 0.00 0.00 0.00 0.00 0.00 0.00 0.00 0.00 0.00 0.00 0.00 0.00 0.00 0.00 0.00 0.00 0.00 0.00 0.00 0.00 0.00 0.00
0.00 0.00 0.00 0.00 0.00 0.00 0.00 0.00 0.00 0.00 0.00 0.00 0.00 0.00 0.00 0.00 0.00 0.00 0.00 0.00 0.00 0.00 0.00 0.00 0.00 0.00 0.00 0.00 0.00 0.00 0.00 0.00 0.00 0.00 0.00 0.00 0.00 0.00 0.00 0.00 0.00 0.00
0.00 0.00 0.00 0.00 0.00 0.00 0.00 0.00 0.00 0.00 0.00 0.00 0.00 0.00 0.00 0.00 0.00 0.00 0.00 0.00 0.00 0.00 0.00 0.00 0.00 0.00 0.00 0.00 0.00 0.00 0.00 0.00 0.00 0.00 0.00 0.00 0.00 0.00 0.00 0.00 0.00 0.00
0.00 0.00 0.00 0.00 0.00 0.00 0.00 0.00 0.00 0.00 0.00 0.00 0.00 0.00 0.00 0.00 0.00 0.00 0.00 0.00 0.00 0.00 0.00 0.00 0.00 0.00 0.00 0.00 0.00 0.00 0.00 0.00 0.00 0.00 0.00 0.00 0.00 0.00 0.00 0.00 0.00 0.00
0.00 0.00 0.00 0.00 0.00 0.00 0.00 0.00 0.00 0.00 0.00 0.00 0.00 0.00 0.00 0.00 0.00 0.00 0.00 0.00 0.00 0.00 0.00 0.00 0.00 0.00 0.00 0.00 0.00 0.00 0.00 0.00 0.00 0.00 0.00 0.00 0.00 0.00 0.00 0.00 0.00 0.00
0.00 0.00 0.00 0.00 0.00 0.00 0.00 0.00 0.00 0.00 0.00 0.00 0.00 0.00 0.00 0.00 0.00 0.01 0.01 0.00 0.00 0.00 0.00 0.00 0.00 0.00 0.00 0.00 0.00 0.00 0.00 0.00 0.00 0.00 0.00 0.00 0.00 0.00 0.00 0.00 0.00 0.00
0.00 0.00 0.00 0.00 0.00 0.00 0.00 0.00 0.01 0.04 0.00 0.01 0.00 0.03 0.02 0.01 0.01 0.01 0.04 0.28 0.25 0.08 0.00 0.00 0.00 0.00 0.00 0.00 0.00 0.00 0.00 0.00 0.00 0.00 0.00 0.00 0.00 0.00 0.00 0.00 0.00 0.00
0.00 0.00 0.00 0.00 0.00 0.00 0.00 0.00 0.09 0.06 0.03 0.02 0.07 0.07 0.02 0.02 0.17 0.30 0.30 0.28 0.17 0.04 0.01 0.00 0.00 0.00 0.00 0.00 0.00 0.00 0.00 0.00 0.00 0.00 0.00 0.00 0.00 0.00 0.00 0.00 0.00 0.00
MSLP
1015.61 1015.73 1015.93 1016.09 1016.29 1016.41 1016.66 1016.85 1016.90 1016.90 1016.93 1016.93 1017.05 1017.14 1017.14 1017.09 1017.02 1017.05 1017.05 1017.05 1017.09 1017.05 1017.02 1016.97 1016.97 1017.05 1017.05 1017.05 1017.09 1017.17 1017.26 1017.29 1017.26 1017.22 1017.22 1017.26 1017.29 1017.29 1017.34 1017.29 1017.29 1017.29
1015.58 1015.61 1015.66 1015.85 1016.09 1016.22 1016.38 1016.46 1016.66 1016.70 1016.82 1016.82 1016.78 1016.78 1016.82 1016.85 1016.90 1016.85 1016.97 1017.02 1016.93 1016.90 1016.82 1016.82 1016.85 1016.90 1016.93 1016.97 1017.02 1017.09 1017.14 1017.17 1017.22 1017.02 1017.14 1017.17 1017.14 1017.14 1017.17 1017.14 1017.17 1017.09
1015.46 1015.61 1015.66 1015.82 1015.97 1016.09 1016.17 1016.26 1016.38 1016.49 1016.58 1016.53 1016.49 1016.53 1016.66 1016.66 1016.73 1016.70 1016.78 1016.82 1016.85 1016.78 1016.73 1016.66 1016.70 1016.70 1016.73 1016.78 1016.82 1016.90 1016.97 1017.02 1017.05 1016.85 1016.93 1016.97 1016.90 1017.02 1016.97 1016.93 1016.97 1016.93
1015.22 1015.29 1015.46 1015.49 1015.58 1015.73 1015.90 1016.09 1016.26 1016.29 1016.34 1016.41 1016.38 1016.38 1016.46 1016.46 1016.49 1016.61 1016.70 1016.66 1016.70 1016.66 1016.58 1016.53 1016.53 1016.53 1016.58 1016.58 1016.66 1016.73 1016.73 1016.73 1016.66 1016.66 1016.78 1016.78 1016.70 1016.70 1016.73 1016.70 1016.70 1016.66
1014.93 1015.14 1015.22 1015.26 1015.26 1015.34 1015.58 1015.82 1016.02 1016.14 1016.22 1016.17 1016.17 1016.26 1016.29 1016.38 1016.46 1016.53 1016.58 1016.58 1016.53 1016.53 1016.49 1016.46 1016.41 1016.41 1016.38 1016.41 1016.46 1016.61 1016.58 1016.58 1016.49 1016.53 1016.66 1016.70 1016.53 1016.49 1016.46 1016.46 1016.53 1016.58
1014.61 1014.73 1014.93 1015.02 1015.09 1015.17 1015.41 1015.53 1015.66 1015.85 1015.97 1016.09 1016.14 1016.09 1016.17 1016.22 1016.26 1016.34 1016.41 1016.46 1016.41 1016.38 1016.38 1016.34 1016.38 1016.34 1016.29 1016.29 1016.34 1016.41 1016.41 1016.46 1016.34 1016.34 1016.49 1016.53 1016.41 1016.34 1016.38 1016.41 1016.41 1016.46
1014.46 1014.61 1014.78 1014.78 1014.90 1014.97 1015.14 1015.22 1015.34 1015.46 1015.70 1015.78 1015.90 1016.05 1016.02 1016.14 1016.17 1016.14 1016.17 1016.22 1016.26 1016.29 1016.29 1016.26 1016.26 1016.29 1016.22 1016.22 1016.26 1016.34 1016.29 1016.22 1016.17 1016.26 1016.38 1016.34 1016.34 1016.26 1016.22 1016.26 1016.26 1016.29
1014.17 1014.34 1014.49 1014.70 1014.82 1014.93 1015.02 1015.14 1015.17 1015.26 1015.38 1015.66 1015.85 1015.78 1015.82 1015.90 1015.97 1015.93 1015.97 1016.05 1016.17 1016.22 1016.17 1016.09 1016.05 1016.05 1016.05 1016.14 1016.26 1016.26 1016.17 1016.05 1016.09 1016.14 1016.26 1016.26 1016.22 1016.26 1016.14 1016.14 1016.09 1016.17
1013.90 1014.17 1014.38 1014.58 1014.70 1014.73 1014.78 1014.85 1014.97 1015.05 1015.22 1015.49 1015.61 1015.61 1015.61 1015.73 1015.78 1015.82 1015.90 1015.93 1016.02 1016.02 1016.05 1016.02 1015.93 1015.90 1015.90 1016.02 1016.09 1016.09 1016.05 1015.97 1015.93 1015.97 1016.05 1016.14 1016.17 1016.09 1016.02 1015.93 1016.05 1016.05
1013.78 1013.90 1014.09 1014.26 1014.38 1014.34 1014.38 1014.46 1014.66 1014.90 1015.02 1015.29 1015.34 1015.41 1015.53 1015.49 1015.53 1015.61 1015.66 1015.73 1015.82 1015.82 1015.85 1015.85 1015.82 1015.78 1015.78 1015.85 1015.90 1015.90 1015.90 1015.85 1015.85 1015.82 1015.85 1015.85 1015.85 1015.85 1015.85 1015.85 1015.85 1015.85
1013.53 1013.61 1013.78 1013.97 1014.09 1014.14 1014.05 1014.09 1014.41 1014.66 1014.82 1015.02 1015.09 1015.22 1015.26 1015.34 1015.38 1015.34 1015.46 1015.53 1015.61 1015.58 1015.61 1015.70 1015.61 1015.58 1015.61 1015.66 1015.70 1015.66 1015.61 1015.61 1015.70 1015.70 1015.73 1015.70 1015.66 1015.61 1015.58 1015.61 1015.66 1015.66
1013.17 1013.38 1013.49 1013.61 1013.78 1013.93 1013.90 1013.85 1014.14 1014.46 1014.66 1014.66 1014.73 1014.90 1014.93 1015.02 1015.05 1015.09 1015.14 1015.22 1015.26 1015.26 1015.26 1015.29 1015.34 1015.34 1015.38 1015.41 1015.46 1015.46 1015.49 1015.49 1015.53 1015.58 1015.58 1015.58 1015.53 1015.49 1015.41 1015.38 1015.38 1015.34
1012.93 1013.09 1013.14 1013.34 1013.53 1013.61 1013.58 1013.66 1013.93 1014.17 1014.38 1014.49 1014.53 1014.66 1014.78 1014.85 1014.85 1014.90 1014.85 1014.90 1014.90 1014.90 1014.93 1014.97 1015.05 1015.09 1015.17 1015.26 1015.29 1015.34 1015.38 1015.41 1015.49 1015.53 1015.53 1015.53 1015.46 1015.38 1015.26 1015.17 1015.14 1015.05
1012.61 1012.66 1012.82 1012.97 1013.17 1013.29 1013.38 1013.41 1013.66 1013.93 1014.09 1014.17 1014.34 1014.53 1014.66 1014.70 1014.70 1014.66 1014.61 1014.66 1014.66 1014.70 1014.70 1014.73 1014.90 1015.02 1015.09 1015.09 1015.09 1015.14 1015.17 1015.26 1015.34 1015.38 1015.41 1015.41 1015.38 1015.26 1015.09 1014.97 1014.82 1014.73
1012.26 1012.38 1012.46 1012.66 1012.90 1013.02 1013.09 1013.22 1013.41 1013.66 1013.85 1013.97 1014.09 1014.22 1014.22 1014.26 1014.26 1014.38 1014.58 1014.66 1014.61 1014.53 1014.46 1014.49 1014.61 1014.70 1014.70 1014.82 1014.90 1014.93 1014.97 1015.02 1015.05 1015.09 1015.14 1015.17 1015.14 1015.05 1014.90 1014.78 1014.66 1014.53
1011.90 1012.09 1012.29 1012.53 1012.78 1012.78 1012.82 1012.97 1013.22 1013.46 1013.58 1013.70 1013.78 1013.82 1013.90 1013.97 1014.09 1014.22 1014.38 1014.46 1014.41 1014.38 1014.38 1014.41 1014.49 1014.46 1014.41 1014.46 1014.49 1014.58 1014.70 1014.73 1014.73 1014.78 1014.82 1014.82 1014.85 1014.78 1014.70 1014.58 1014.49 1014.38
1011.73 1012.05 1012.17 1012.41 1012.41 1012.41 1012.58 1012.85 1013.05 1013.22 1013.29 1013.41 1013.49 1013.58 1013.66 1013.73 1013.93 1014.14 1014.17 1014.09 1014.14 1014.22 1014.29 1014.29 1014.22 1014.17 1014.09 1014.22 1014.29 1014.26 1014.29 1014.41 1014.49 1014.49 1014.49 1014.53 1014.61 1014.61 1014.53 1014.34 1014.26 1014.17
1011.46 1011.61 1011.97 1012.09 1012.14 1012.26 1012.38 1012.61 1012.82 1012.97 1013.05 1013.14 1013.26 1013.38 1013.38 1013.53 1013.78 1013.82 1013.82 1013.82 1013.85 1013.93 1014.02 1013.93 1013.85 1013.70 1013.73 1013.85 1013.97 1014.02 1014.05 1014.17 1014.26 1014.34 1014.29 1014.29 1014.29 1014.34 1014.26 1014.26 1014.22 1014.09
1011.09 1011.41 1011.66 1011.82 1011.85 1011.93 1012.17 1012.49 1012.70 1012.82 1012.85 1012.97 1013.02 1013.02 1013.22 1013.46 1013.49 1013.58 1013.61 1013.58 1013.70 1013.78 1013.78 1013.61 1013.53 1013.29 1013.38 1013.53 1013.61 1013.70 1013.78 1013.93 1014.05 1014.05 1014.14 1014.09 1014.05 1014.02 1014.05 1014.05 1014.05 1014.02
1010.93 1011.14 1011.41 1011.49 1011.58 1011.82 1012.09 1012.38 1012.58 1012.58 1012.53 1012.61 1012.78 1013.02 1013.17 1013.26 1013.29 1013.38 1013.41 1013.49 1013.58 1013.58 1013.49 1013.34 1013.26 1013.09 1013.14 1013.14 1013.17 1013.26 1013.38 1013.61 1013.73 1013.82 1013.82 1013.82 1013.78 1013.78 1013.82 1013.82 1013.78 1013.82
1010.82 1010.93 1011.14 1011.34 1011.53 1011.73 1012.02 1012.22 1012.29 1012.34 1012.49 1012.61 1012.78 1012.90 1012.93 1013.02 1013.09 1013.26 1013.26 1013.26 1013.29 1013.26 1013.26 1013.17 1013.02 1012.90 1012.93 1012.90 1012.97 1013.05 1013.17 1013.38 1013.49 1013.58 1013.61 1013.58 1013.53 1013.49 1013.49 1013.49 1013.46 1013.46
1010.66 1010.82 1010.97 1011.17 1011.41 1011.66 1011.90 1012.02 1012.09 1012.17 1012.38 1012.49 1012.66 1012.66 1012.61 1012.73 1012.85 1012.85 1012.97 1013.02 1012.97 1012.97 1012.97 1012.97 1012.73 1012.66 1012.73 1012.78 1012.85 1012.97 1013.14 1013.22 1013.26 1013.34 1013.38 1013.38 1013.34 1013.26 1013.22 1013.22 1013.17 1013.17
1010.38 1010.58 1010.82 1011.02 1011.17 1011.46 1011.66 1011.73 1011.82 1012.02 1012.26 1012.41 1012.70 1012.73 1012.85 1012.93 1012.90 1012.93 1012.90 1012.93 1012.90 1012.82 1012.85 1012.73 1012.53 1012.41 1012.46 1012.53 1012.66 1012.78 1012.90 1012.93 1013.05 1013.14 1013.17 1013.22 1013.14 1013.05 1013.05 1013.02 1012.97 1012.85
1010.14 1010.26 1010.49 1010.73 1010.97 1011.09 1011.14 1011.17 1011.49 1012.05 1012.41 1012.46 1012.66 1012.70 1012.70 1012.58 1012.61 1012.78 1012.82 1012.78 1012.82 1012.73 1012.66 1012.58 1012.29 1012.14 1012.26 1012.38 1012.49 1012.61 1012.58 1012.70 1012.82 1012.93 1012.97 1013.02 1012.97 1012.93 1012.93 1012.90 1012.73 1012.58
1009.78 1009.85 1010.05 1010.29 1010.46 1010.46 1010.53 1011.14 1011.49 1011.38 1011.14 1011.34 1011.58 1011.82 1011.97 1012.02 1012.22 1012.66 1013.09 1013.70 1014.02 1013.78 1012.61 1012.34 1012.14 1012.14 1012.29 1012.41 1012.53 1012.49 1012.53 1012.61 1012.70 1012.78 1012.90 1012.90 1012.93 1012.90 1012.85 1012.82 1012.66 1012.49
1009.26 1009.46 1009.66 1009.85 1009.93 1010.17 1010.49 1010.53 1010.61 1010.93 1011.26 1011.46 1011.58 1011.70 1011.85 1011.97 1012.09 1012.17 1012.09 1012.09 1012.29 1012.73 1012.90 1012.46 1012.14 1012.14 1012.34 1012.41 1012.38 1012.34 1012.38 1012.41 1012.53 1012.66 1012.73 1012.73 1012.85 1012.93 1012.78 1012.61 1012.66 1012.49
Thickness
5771 5769 5767 5765 5761 5759 5756 5753 5751 5749 5747 5746 5743 5741 5739 5738 5737 5735 5734 5732 5730 5729 5728 5726 5724 5721 5719 5716 5714 5711 5708 5706 5704 5702 5700 5697 5694 5692 5690 5687 5685 5683
5769 5767 5766 5763 5760 5757 5755 5752 5750 5748 5746 5744 5742 5740 5738 5736 5735 5733 5731 5729 5728 5727 5726 5724 5722 5719 5717 5714 5712 5709 5706 5703 5701 5700 5697 5694 5692 5689 5687 5684 5681 5679
5767 5765 5764 5761 5759 5756 5754 5752 5749 5747 5745 5743 5741 5739 5737 5735 5733 5731 5729 5727 5725 5724 5723 5722 5720 5717 5715 5712 5710 5707 5704 5701 5698 5698 5695 5692 5690 5687 5684 5682 5679 5676
5766 5763 5762 5760 5759 5757 5754 5751 5748 5746 5744 5742 5740 5738 5735 5733 5731 5729 5727 5725 5724 5722 5721 5720 5718 5715 5713 5710 5707 5704 5702 5699 5697 5695 5691 5689 5687 5684 5682 5679 5676 5674
5766 5763 5761 5759 5758 5757 5754 5752 5748 5745 5743 5740 5738 5736 5733 5731 5729 5726 5724 5723 5722 5720 5719 5718 5715 5713 5710 5707 5705 5701 5699 5697 5695 5692 5688 5685 5684 5682 5679 5676 5673 5670
5765 5762 5760 5758 5757 5756 5753 5751 5748 5744 5741 5738 5736 5733 5731 5728 5726 5724 5722 5721 5720 5718 5716 5714 5712 5710 5708 5705 5702 5699 5697 5694 5692 5689 5685 5683 5681 5679 5677 5673 5670 5667
5764 5762 5760 5757 5755 5754 5751 5750 5747 5744 5740 5737 5733 5731 5728 5726 5724 5722 5720 5718 5717 5715 5713 5711 5709 5707 5705 5702 5699 5695 5693 5691 5689 5686 5682 5680 5678 5676 5673 5670 5666 5664
5764 5761 5758 5755 5752 5751 5749 5748 5745 5742 5739 5734 5731 5729 5727 5724 5722 5720 5718 5715 5713 5711 5710 5709 5707 5704 5702 5699 5695 5692 5690 5689 5686 5683 5679 5677 5675 5672 5670 5667 5664 5661
5763 5759 5755 5753 5751 5750 5748 5746 5743 5740 5737 5732 5729 5727 5725 5722 5720 5718 5715 5713 5711 5709 5708 5706 5703 5701 5698 5695 5692 5689 5687 5686 5683 5680 5677 5674 5671 5669 5667 5664 5661 5658
5760 5757 5755 5752 5750 5749 5748 5745 5741 5738 5734 5730 5728 5726 5723 5721 5719 5717 5714 5711 5709 5707 5705 5703 5700 5698 5696 5693 5690 5687 5685 5682 5679 5677 5674 5672 5669 5667 5664 5661 5658 5655
5758 5757 5754 5752 5749 5747 5747 5744 5740 5735 5732 5729 5726 5724 5721 5720 5717 5715 5713 5710 5707 5706 5703 5700 5698 5696 5692 5690 5687 5684 5682 5680 5676 5674 5671 5669 5667 5664 5662 5659 5656 5653
5757 5756 5753 5751 5748 5745 5745 5743 5738 5734 5730 5727 5725 5723 5720 5717 5715 5713 5710 5708 5706 5704 5701 5698 5696 5693 5689 5687 5684 5681 5679 5676 5674 5670 5667 5665 5663 5661 5659 5657 5654 5652
5757 5754 5752 5750 5746 5744 5743 5741 5737 5732 5728 5726 5723 5720 5717 5714 5712 5709 5708 5706 5704 5703 5700 5696 5694 5690 5687 5684 5681 5679 5676 5673 5670 5666 5663 5660 5658 5657 5655 5654 5652 5650
5755 5752 5752 5748 5745 5743 5741 5738 5735 5730 5727 5724 5720 5717 5713 5711 5709 5707 5705 5704 5701 5700 5697 5694 5691 5687 5684 5681 5679 5676 5673 5670 5667 5663 5660 5657 5654 5653 5652 5651 5650 5648
5753 5751 5750 5747 5744 5742 5739 5736 5733 5728 5725 5721 5718 5714 5711 5709 5707 5705 5702 5699 5698 5696 5693 5691 5687 5684 5682 5679 5676 5673 5670 5668 5665 5662 5659 5655 5652 5651 5649 5648 5647 5645
5752 5750 5747 5744 5742 5740 5737 5734 5730 5726 5723 5719 5715 5713 5710 5708 5705 5702 5699 5696 5694 5691 5690 5688 5685 5682 5680 5677 5674 5672 5669 5666 5664 5661 5658 5655 5652 5649 5647 5645 5644 5642
5750 5748 5745 5742 5740 5738 5735 5732 5728 5724 5721 5716 5714 5711 5708 5706 5703 5699 5696 5694 5691 5688 5685 5684 5682 5680 5678 5674 5672 5669 5667 5664 5661 5658 5656 5653 5650 5648 5645 5644 5642 5639
5748 5746 5743 5740 5738 5736 5733 5729 5724 5721 5717 5713 5711 5709 5706 5705 5701 5697 5694 5692 5688 5684 5682 5681 5680 5679 5676 5672 5669 5667 5665 5662 5659 5656 5654 5651 5649 5647 5644 5642 5639 5637
5747 5744 5741 5738 5736 5734 5729 5725 5721 5717 5714 5710 5707 5706 5703 5701 5698 5695 5692 5689 5685 5681 5678 5677 5676 5676 5674 5670 5668 5666 5663 5660 5657 5654 5652 5649 5648 5645 5642 5640 5638 5635
5744 5743 5739 5736 5734 5729 5725 5721 5716 5713 5710 5707 5704 5702 5699 5697 5694 5690 5687 5685 5681 5677 5674 5674 5673 5672 5671 5669 5667 5665 5661 5658 5655 5652 5650 5648 5645 5643 5641 5638 5636 5634
5742 5740 5736 5732 5729 5725 5720 5716 5713 5710 5706 5703 5701 5698 5696 5693 5690 5687 5685 5682 5679 5675 5673 5671 5669 5669 5667 5665 5664 5661 5658 5655 5653 5650 5648 5645 5643 5641 5639 5637 5635 5632
5739 5736 5731 5728 5724 5720 5716 5712 5710 5707 5703 5700 5697 5694 5692 5690 5687 5684 5682 5678 5675 5672 5670 5668 5667 5665 5662 5661 5660 5658 5656 5653 5650 5647 5645 5643 5641 5639 5636 5635 5633 5630
5735 5730 5727 5724 5720 5716 5713 5711 5708 5703 5699 5695 5690 5688 5686 5684 5682 5680 5677 5673 5670 5668 5668 5666 5664 5663 5660 5658 5657 5656 5654 5651 5648 5645 5642 5639 5637 5635 5634 5632 5630 5629
5730 5727 5723 5720 5717 5715 5713 5709 5704 5699 5696 5693 5688 5686 5684 5682 5680 5676 5671 5667 5663 5662 5665 5665 5663 5661 5658 5655 5654 5652 5651 5648 5644 5641 5638 5636 5634 5631 5629 5628 5626 5626
5727 5725 5722 5719 5717 5715 5712 5706 5702 5699 5699 5695 5691 5687 5686 5683 5678 5673 5668 5664 5657 5655 5659 5662 5661 5658 5655 5651 5649 5648 5646 5644 5640 5637 5635 5632 5629 5627 5625 5624 5622 5621
5726 5724 5721 5719 5717 5714 5710 5706 5702 5699 5696 5692 5688 5685 5682 5679 5676 5672 5669 5667 5661 5656 5655 5656 5654 5653 5650 5647 5645 5643 5641 5640 5637 5634 5632 5629 5625 5622 5620 5619 5617 5616